Volver al catálogo

THORAD AGENA D R/B

ActivoLEO
NORAD 4159·ROCKET BODY·🇺🇸 United States

Lanzado Sep 30, 1969 desde Vandenberg Space Force Base

Loading…

Próximos Pases (próximas 24 horas)

TLE

ActualizadoSource: Space-Track

Época: Sep 13, 2026, 19:07 UTC

1 04159U 69082AB  26256.79665562  .00000001  00000-0  53568-4 0  9993
2 04159  69.9629  45.1881 0116042 209.8945 149.5488 13.72922286850745

Sigue THORAD AGENA D R/B en tiempo real con AllMySat

Download on the App Store